Location: Newark
(7.1028°S, 35.3258°W)
Time: 08:57:29
(UTC+00:00)

Vanguard 3 - Pass Details

Date: 27 February 2020
Orbit: 508 x 3263 km, 33.4° (Epoch: 08 April)

Event Time Altitude Azimuth Distance (km) Brightness Sun altitude
Rises 00:56:07 0° 240° (WSW) 7,095 12.4 -60.9°
Reaches altitude 10° 01:03:19 10° 226° (SW) 5,762 11.7 -62.4°
Enters shadow 01:14:20 21° 185° (S) 4,120 10.7 -64.6°
Maximum altitude 01:14:37 21° 183° (S) 4,094 - -64.7°
Drops below altitude 10° 01:22:54 10° 138° (SE) 4,114 - -66.3°
Sets 01:26:49 0° 122° (ESE) 4,653 - -67.0°
